TimeCDT,TemperatureF,Dew PointF,Humidity,Sea Level PressureIn,VisibilityMPH,Wind Direction,Wind SpeedMPH,Gust SpeedMPH,PrecipitationIn,Events,Conditions,WindDirDegrees,DateUTC
12:15 AM,52.0,43.2,72,30.21,10.0,North,5.8,-,N/A,,Scattered Clouds,360,2012-10-12 05:15:00
12:35 AM,52.7,42.8,69,30.21,10.0,NNE,5.8,-,N/A,,Clear,20,2012-10-12 05:35:00
12:55 AM,52.0,41.9,69,30.22,10.0,North,9.2,-,N/A,,Clear,10,2012-10-12 05:55:00
1:15 AM,52.0,41.4,67,30.22,10.0,North,17.3,-,N/A,,Clear,10,2012-10-12 06:15:00
1:35 AM,50.4,39.7,67,30.24,10.0,North,13.8,19.6,N/A,,Clear,10,2012-10-12 06:35:00
1:55 AM,49.1,38.5,67,30.24,10.0,North,11.5,20.7,N/A,,Clear,10,2012-10-12 06:55:00
2:15 AM,48.2,37.9,68,30.25,10.0,North,13.8,-,N/A,,Clear,10,2012-10-12 07:15:00
2:35 AM,47.3,36.7,67,30.27,10.0,North,11.5,-,N/A,,Clear,10,2012-10-12 07:35:00
2:55 AM,46.4,35.6,66,30.27,10.0,North,9.2,-,N/A,,Clear,10,2012-10-12 07:55:00
3:15 AM,46.0,35.8,67,30.28,10.0,North,6.9,-,N/A,,Clear,10,2012-10-12 08:15:00
3:35 AM,44.8,35.6,70,30.28,10.0,NNE,6.9,-,N/A,,Clear,20,2012-10-12 08:35:00
3:55 AM,44.6,35.2,70,30.29,10.0,NNE,8.1,-,N/A,,Clear,20,2012-10-12 08:55:00
4:15 AM,44.6,34.9,69,30.30,10.0,NNE,9.2,-,N/A,,Clear,20,2012-10-12 09:15:00
4:35 AM,44.6,34.5,68,30.30,10.0,NNE,9.2,-,N/A,,Clear,20,2012-10-12 09:35:00
4:55 AM,44.6,34.3,67,30.30,10.0,North,10.4,-,N/A,,Clear,10,2012-10-12 09:55:00
5:15 AM,44.2,34.3,68,30.30,10.0,NNE,8.1,-,N/A,,Clear,20,2012-10-12 10:15:00
5:35 AM,44.6,35.6,71,30.31,10.0,North,9.2,-,N/A,,Scattered Clouds,10,2012-10-12 10:35:00
5:55 AM,42.8,34.7,73,30.31,10.0,North,6.9,-,N/A,,Scattered Clouds,10,2012-10-12 10:55:00
6:15 AM,41.4,34.7,77,30.31,10.0,NNE,6.9,-,N/A,,Clear,20,2012-10-12 11:15:00
6:35 AM,41.9,35.2,77,30.33,10.0,NNE,6.9,-,N/A,,Clear,20,2012-10-12 11:35:00
6:55 AM,41.2,35.6,81,30.34,10.0,North,5.8,-,N/A,,Clear,360,2012-10-12 11:55:00
7:15 AM,41.7,35.8,79,30.36,10.0,North,5.8,-,N/A,,Clear,360,2012-10-12 12:15:00
7:35 AM,41.9,36.5,81,30.37,10.0,NNE,8.1,-,N/A,,Clear,20,2012-10-12 12:35:00
7:55 AM,42.8,36.9,80,30.37,10.0,NNE,9.2,-,N/A,,Clear,20,2012-10-12 12:55:00
8:15 AM,44.6,36.7,74,30.39,10.0,NNE,9.2,-,N/A,,Clear,20,2012-10-12 13:15:00
8:35 AM,45.9,36.3,69,30.39,10.0,NNE,9.2,-,N/A,,Clear,30,2012-10-12 13:35:00
8:55 AM,48.2,35.6,62,30.39,10.0,NNE,13.8,-,N/A,,Clear,30,2012-10-12 13:55:00
9:15 AM,48.7,35.8,61,30.39,10.0,NE,11.5,18.4,N/A,,Clear,40,2012-10-12 14:15:00
9:35 AM,50.0,36.3,59,30.40,10.0,NE,11.5,-,N/A,,Clear,50,2012-10-12 14:35:00
9:55 AM,50.9,36.1,57,30.41,10.0,East,8.1,-,N/A,,Clear,80,2012-10-12 14:55:00
10:15 AM,51.8,36.5,56,30.40,10.0,ENE,16.1,-,N/A,,Clear,60,2012-10-12 15:15:00
10:35 AM,52.7,37.0,55,30.40,10.0,ENE,13.8,18.4,N/A,,Clear,70,2012-10-12 15:35:00
10:55 AM,53.6,37.4,54,30.40,10.0,ENE,15.0,18.4,N/A,,Clear,70,2012-10-12 15:55:00
11:15 AM,54.5,38.3,54,30.40,10.0,East,10.4,18.4,N/A,,Clear,80,2012-10-12 16:15:00
11:35 AM,55.6,37.8,51,30.40,10.0,East,13.8,17.3,N/A,,Clear,100,2012-10-12 16:35:00
11:55 AM,56.5,38.3,51,30.39,10.0,East,9.2,-,N/A,,Clear,100,2012-10-12 16:55:00
12:15 PM,57.4,39.2,51,30.39,10.0,East,10.4,17.3,N/A,,Clear,90,2012-10-12 17:15:00
12:35 PM,58.3,37.2,45,30.38,10.0,East,9.2,-,N/A,,Clear,90,2012-10-12 17:35:00
12:55 PM,59.0,36.1,42,30.37,10.0,ENE,9.2,18.4,N/A,,Clear,60,2012-10-12 17:55:00
1:35 PM,59.9,35.4,40,30.36,10.0,ESE,8.1,-,N/A,,Clear,120,2012-10-12 18:35:00
1:55 PM,60.1,33.3,36,30.36,10.0,East,9.2,-,N/A,,Clear,90,2012-10-12 18:55:00
2:15 PM,60.8,31.8,34,30.35,10.0,East,5.8,-,N/A,,Clear,90,2012-10-12 19:15:00
2:35 PM,61.2,33.3,35,30.33,10.0,ENE,9.2,-,N/A,,Clear,70,2012-10-12 19:35:00
2:55 PM,61.7,33.1,34,30.33,10.0,East,9.2,-,N/A,,Clear,100,2012-10-12 19:55:00
3:15 PM,61.7,33.3,34,30.32,10.0,East,3.5,-,N/A,,Clear,80,2012-10-12 20:15:00
3:35 PM,62.4,33.8,34,30.32,10.0,East,4.6,-,N/A,,Clear,100,2012-10-12 20:35:00
3:55 PM,62.4,33.6,34,30.32,10.0,East,5.8,-,N/A,,Clear,90,2012-10-12 20:55:00
4:15 PM,62.6,34.0,34,30.31,10.0,East,6.9,-,N/A,,Clear,100,2012-10-12 21:15:00
4:35 PM,62.2,34.5,36,30.31,10.0,ESE,8.1,-,N/A,,Clear,110,2012-10-12 21:35:00
4:55 PM,62.1,35.8,38,30.30,10.0,ESE,4.6,-,N/A,,Clear,120,2012-10-12 21:55:00
5:15 PM,61.5,36.3,39,30.30,10.0,East,8.1,-,N/A,,Clear,100,2012-10-12 22:15:00
5:55 PM,58.3,37.8,46,30.29,10.0,East,5.8,-,N/A,,Clear,90,2012-10-12 22:55:00
6:15 PM,55.9,37.6,50,30.28,10.0,East,5.8,-,N/A,,Clear,90,2012-10-12 23:15:00
6:35 PM,55.4,36.7,49,30.28,10.0,ENE,3.5,-,N/A,,Clear,70,2012-10-12 23:35:00
6:55 PM,54.0,36.9,52,30.27,10.0,East,3.5,-,N/A,,Clear,80,2012-10-12 23:55:00
7:15 PM,53.1,36.7,54,30.27,10.0,East,3.5,-,N/A,,Clear,80,2012-10-13 00:15:00
7:35 PM,52.0,36.7,56,30.27,10.0,East,3.5,-,N/A,,Clear,80,2012-10-13 00:35:00
7:55 PM,51.1,36.7,58,30.26,10.0,East,3.5,-,N/A,,Clear,80,2012-10-13 00:55:00
8:15 PM,48.2,37.0,65,30.26,10.0,East,5.8,-,N/A,,Clear,90,2012-10-13 01:15:00
8:35 PM,47.5,37.4,68,30.26,10.0,East,3.5,-,N/A,,Clear,100,2012-10-13 01:35:00
8:55 PM,48.2,37.4,66,30.26,10.0,East,3.5,-,N/A,,Clear,100,2012-10-13 01:55:00
9:15 PM,47.5,37.8,69,30.26,10.0,ESE,3.5,-,N/A,,Clear,110,2012-10-13 02:15:00
9:35 PM,46.6,37.9,72,30.26,10.0,SE,3.5,-,N/A,,Clear,130,2012-10-13 02:35:00
9:55 PM,48.6,38.7,69,30.26,10.0,SE,4.6,-,N/A,,Clear,130,2012-10-13 02:55:00
10:15 PM,49.3,39.2,68,30.26,10.0,SE,5.8,-,N/A,,Clear,130,2012-10-13 03:15:00
10:35 PM,49.1,39.7,70,30.25,10.0,SE,4.6,-,N/A,,Clear,130,2012-10-13 03:35:00
10:55 PM,49.3,40.1,71,30.24,10.0,ESE,4.6,-,N/A,,Clear,120,2012-10-13 03:55:00
11:15 PM,50.0,41.0,71,30.24,10.0,ESE,3.5,-,N/A,,Clear,120,2012-10-13 04:15:00
11:35 PM,50.0,41.0,71,30.24,10.0,ESE,3.5,-,N/A,,Clear,120,2012-10-13 04:35:00
11:55 PM,50.0,41.5,73,30.24,10.0,SE,4.6,-,N/A,,Clear,140,2012-10-13 04:55:00